Regional Weather Roundup
Issued by NWS

Home | Current Version | Previous Version | Text Only | Print | Product List | Glossary On
Versions: 1 2 3 4 5 6 7 8 9 10 11 12 13 14 15 16 17 18 19 20 21 22 23 24 25 26 27 28 29 30 31 32 33 34 35 36 37 38 39 40 41 42 43 44 45 46 47 48 49 50
000
ASUS43 KTOP 200408
RWRKS

WEATHER ROUNDUP FOR KANSAS
NATIONAL WEATHER SERVICE GOODLAND KS
1100 PM CDT THU APR 19 2018

NOTE:  "FAIR" INDICATES FEW OR NO CLOUDS BELOW 12,000 FEET WITH NO
SIGNIFICANT WEATHER AND/OR OBSTRUCTIONS TO VISIBILITY.

KSZ001>006-013>018-027>032-041>047-200500-
NORTHWEST KANSAS

CITY           SKY/WX    TMP DP  RH WIND       PRES   REMARKS
GOODLAND       MOCLDY    47  25  42 SE21G32   30.17S
HAYS           CLOUDY    41  26  55 E8        30.32R
HILL CITY      CLOUDY    42  27  55 E8        30.30S
RUSSELL        CLOUDY    45  29  53 SE9       30.30S
$$

KSZ061>065-074>080-084>089-200500-
SOUTHWEST KANSAS

CITY           SKY/WX    TMP DP  RH WIND       PRES   REMARKS
DODGE CITY     CLEAR     45  25  45 SE13      30.27S
ELKHART        MOCLDY    56  31  38 SE21      30.18S
GARDEN CITY    CLOUDY    47  26  44 SE14      30.23R
GREAT BEND     CLEAR     43  28  55 SE6       30.32R
LIBERAL        PTCLDY    52  27  38 SE17      30.23R
PRATT          CLOUDY    44  26  50 E6        30.31S
$$

KSZ066>073-081>083-090>101-200500-
SOUTHEAST KANSAS

CITY           SKY/WX    TMP DP  RH WIND       PRES   REMARKS
CHANUTE        CLEAR     47  32  56 E3        30.39R
COFFEYVILLE    CLOUDY    44  33  65 NE3       30.38R
HUTCHINSON     CLOUDY    46  28  49 SE9       30.34S
MEDICINE LODGE   N/A     47  30  51 E8        30.31S
NEWTON         CLOUDY    44  27  51 E9        30.36S
PARSONS        CLEAR     40  33  76 CALM      30.39R
WICHITA INTL   CLOUDY    48  29  47 E9        30.35R
WICHITA JABRA  PTCLDY    44  29  55 SE5       30.35R
WICHITA MCCONL CLOUDY    47  26  43 SE7       30.35R
WINFIELD       CLEAR     47  29  49 E6        30.36S
$$

KSZ007>012-019>026-033>040-048>060-102>105-200500-
NORTHEAST KANSAS

CITY           SKY/WX    TMP DP  RH WIND       PRES   REMARKS
CONCORDIA      CLEAR     42  25  50 SE5       30.35R
EMPORIA        CLOUDY    45  29  53 SE5       30.37R
LAWRENCE       CLOUDY    37  31  78 E3        30.40R
MANHATTAN      CLOUDY    45  27  49 CALM      30.37S
MARYSVILLE     CLEAR     39  27  60 SE3       30.37S
OLATHE IND     PTCLDY    46  31  55 E3        30.40R
OLATHE EXE     PTCLDY    46  30  53 E6        30.40R
SALINA         CLEAR     46  28  49 SE6       30.35S
TOPEKA BILLARD CLOUDY    42  31  64 CALM      30.39R
TOPEKA FORBES  CLOUDY    44  30  57 SE6       30.39R
$$



USA.gov is the U.S. government's official web portal to all federal, state and local government web resources and services.